Tracking 19709 objects as of 18-Jun-2019
HD Live streaming from Space Station
objects crossing your sky now

DELTA 1 R/B

Track DELTA 1 R/B now!
10-day predictions


NORAD ID: 10704
Int'l Code: 1978-026C
Perigee: 889.6 km
Apogee: 997.1 km
Inclination: 99.0 °
Period: 103.8 minutes
Semi major axis: 7314 km
RCS: 5.2616 m2 (large)
Launch date: March 5, 1978
Source: United States (US)
Launch site: AIR FORCE WESTERN TEST RANGE (AFWTR)

Note: This is a ROCKET BODY
aabbcc
Your satellite tracking list
Your tracking list is empty




NASA's NSSDC Master Catalog

Two Line Element Set (TLE):
1 10704U 78026C   19169.27320856 -.00000019  00000-0  19308-4 0  9990
2 10704  99.0212  90.2100 0073474  28.5577 331.9576 13.87831664131688
Source of the keplerian elements: AFSPC